Stations météo

Publicité
Cottbus, Allemagne (10496): Température de l'air & dewpoint: 21.06.2019 12:00:00 - 27.06.2019 12:00:00 (CEST)Cottbus, Allemagne (10496): Température de l'air 5cm & Température de l'air -5cm: 21.06.2019 12:00:00 - 27.06.2019 12:00:00 (CEST)Cottbus, Allemagne (10496): Température de l'air -20cm & Température de l'air -100cm: 21.06.2019 12:00:00 - 27.06.2019 12:00:00 (CEST)Cottbus, Allemagne (10496): Vitesse du vent & gusts: 21.06.2019 12:00:00 - 27.06.2019 12:00:00 (CEST)Cottbus, Allemagne (10496): Direction du vent: 21.06.2019 12:00:00 - 27.06.2019 12:00:00 (CEST)Cottbus, Allemagne (10496): reduced air pressure: 21.06.2019 12:00:00 - 27.06.2019 12:00:00 (CEST)Cottbus, Allemagne (10496): visibility: 21.06.2019 12:00:00 - 27.06.2019 12:00:00 (CEST)Cottbus, Allemagne (10496): Ensoleillement: 21.06.2019 12:00:00 - 27.06.2019 12:00:00 (CEST)Cottbus, Allemagne (10496): Quantités de précipitations: 21.06.2019 12:00:00 - 27.06.2019 12:00:00 (CEST)
Date & Time tt [°C] td [°C] tt 5cm [°C] tt -5cm [°C] tt -20cm [°C] tt -100cm [°C] ff [km/h] ff [knt] fx [km/h] fx [knt] dd ppp [hPa] vv [km] sd [min] rr [mm]
27.06.2019 12:00:00 22,6 4,9 29,0 35,9 28,1 22,8 15 8 31 17 WNW 1022,9 28 60 0,0
27.06.2019 11:00:00 21,4 6,4 27,4 33,5 27,7 22,8 14 8 33 18 NW 1023,2 32 60 0,0
27.06.2019 10:00:00 19,2 10,8 24,5 30,7 27,6 22,7 13 7 28 15 W 1023,2 22 60 0,0
27.06.2019 09:00:00 18,8 10,7 23,5 27,3 27,6 22,7 12 6 30 16 NW 1023,4 26 57 0,0
27.06.2019 08:00:00 17,2 11,2 19,1 24,8 27,9 22,7 14 7 32 17 WNW 1023,3 42 33 0,0
27.06.2019 07:00:00 16,5 12,0 16,5 24,0 28,3 22,7 19 10 37 20 WNW 1023,0 41 0 0,0
27.06.2019 06:00:00 17,7 14,0 17,8 24,0 28,8 22,7 13 7 29 16 WNW 1022,5 27 2 0,0
27.06.2019 05:00:00 19,2 14,8 18,3 24,9 29,2 22,6 14 7 28 15 WNW 1021,6 36 0 0,0
27.06.2019 04:00:00 21,1 15,2 19,9 25,9 29,7 22,6 10 5 23 13 WNW 1021,0 45 0 0,0
27.06.2019 03:00:00 22,6 16,0 21,5 27,0 30,1 22,6 8 5 25 14 WNW 1020,9 46 0 0,0
27.06.2019 02:00:00 24,3 16,5 23,3 28,0 30,6 22,5 13 7 28 15 WNW 1020,3 46 0 0,0
27.06.2019 01:00:00 25,9 16,4 24,7 29,2 31,1 22,5 11 6 38 20 WNW 1019,9 40 0 0,0
27.06.2019 00:00:00 27,7 16,0 26,7 30,4 31,5 22,5 13 7 29 16 NW 1019,4 49 0 0,0
26.06.2019 23:00:00 29,5 16,1 28,4 31,7 32,0 22,5 9 5 30 16 NW 1019,0 39 0 0,0
26.06.2019 22:00:00 31,2 16,8 30,0 33,3 32,3 22,5 12 7 30 16 NW 1018,3 35 0 0,0
26.06.2019 21:00:00 33,0 16,8 32,2 35,4 32,6 22,5 10 6 24 13 WNW 1017,4 32 16 0,0
26.06.2019 20:00:00 34,5 15,5 34,5 38,0 32,8 22,4 9 5 32 17 W 1017,0 39 58 0,0
26.06.2019 19:00:00 36,0 15,4 37,8 40,3 32,7 22,4 14 8 34 19 W 1016,8 25 60 0,0
26.06.2019 18:00:00 36,5 14,9 39,2 42,2 32,5 22,4 16 9 36 19 W 1017,0 22 59 0,0
26.06.2019 17:00:00 37,1 14,9 41,6 43,6 32,1 22,4 16 9 39 21 WNW 1017,5 21 60 0,0
26.06.2019 16:00:00 37,5 15,3 43,7 44,5 31,5 22,4 11 6 32 17 W 1017,9 47 58 0,0
26.06.2019 15:00:00 37,0 14,9 43,1 45,0 30,8 22,4 16 9 32 17 WNW 1018,2 18 60 0,0
26.06.2019 14:00:00 36,2 14,5 42,4 44,3 30,0 22,4 13 7 29 15 W 1018,5 22 60 0,0
26.06.2019 13:00:00 36,1 13,3 42,9 43,1 29,2 22,4 12 7 34 18 W 1019,0 24 60 0,0
26.06.2019 12:00:00 35,0 15,1 41,5 41,0 28,5 22,3 11 6 27 15 WSW 1019,4 24 60 0,0
26.06.2019 11:00:00 33,8 15,5 39,2 38,2 27,8 22,3 14 7 28 15 WSW 1019,6 20 60 0,0
26.06.2019 10:00:00 31,9 16,4 36,5 35,1 27,4 22,3 15 8 29 15 SW 1019,5 9 60 0,0
26.06.2019 09:00:00 30,4 17,5 34,3 31,7 27,1 22,3 13 7 25 13 WSW 1019,5 18 60 0,0
26.06.2019 08:00:00 27,6 18,3 30,2 28,5 27,1 22,3 11 6 20 11 SW 1019,4 13 60 0,0
26.06.2019 07:00:00 25,7 18,4 27,0 26,0 27,3 22,2 8 4 17 9 S 1019,4 21 60 0,0
26.06.2019 06:00:00 24,3 18,0 23,5 24,9 27,6 22,2 9 5 16 9 S 1019,5 22 11 0,0
26.06.2019 05:00:00 24,1 17,9 22,2 25,2 27,9 22,2 7 4 17 9 S 1019,5 24 0 0,0
26.06.2019 04:00:00 24,7 17,7 23,1 25,6 28,2 22,2 8 4 19 10 S 1019,9 27 0 0,0
26.06.2019 03:00:00 25,1 17,5 23,6 26,0 28,6 22,2 10 5 17 9 S 1020,1 28 0 0,0
26.06.2019 02:00:00 25,5 17,4 24,1 26,5 29,1 22,1 9 5 16 8 SSE 1020,2 31 0 0,0
26.06.2019 01:00:00 25,5 17,0 22,4 27,2 29,5 22,1 5 3 16 9 SSE 1020,3 32 0 0,0
26.06.2019 00:00:00 26,5 16,4 24,3 27,8 30,0 22,1 8 4 14 7 SE 1020,2 35 0 0,0
25.06.2019 23:00:00 24,6 16,0 21,4 29,0 30,5 22,1 6 4 9 5 SE 1020,3 46 0 0,0
25.06.2019 22:00:00 26,1 15,4 22,7 31,0 30,9 22,1 5 3 9 5 ESE 1020,3 45 0 0,0
25.06.2019 21:00:00 30,6 13,2 27,3 33,8 31,2 22,1 6 3 22 12 SSW 1019,9 66 49 0,0
25.06.2019 20:00:00 33,1 12,3 33,2 36,7 31,3 22,1 8 4 22 12 SE 1019,6 60 60 0,0
25.06.2019 19:00:00 33,5 12,0 36,7 38,4 31,2 22,1 11 6 19 11 SE 1019,8 70 60 0,0
25.06.2019 18:00:00 33,8 10,9 37,4 40,3 30,9 22,1 10 5 21 11 SSW 1020,1 51 60 0,0
25.06.2019 17:00:00 33,9 10,2 39,2 42,0 30,4 22,1 11 6 24 13 SE 1020,2 36 60 0,0
25.06.2019 16:00:00 34,0 8,8 39,4 42,5 29,8 22,1 13 7 23 13 SSE 1020,7 37 60 0,0
25.06.2019 15:00:00 34,0 8,5 40,2 42,1 29,0 22,1 12 7 29 16 S 1021,1 27 60 0,0
25.06.2019 14:00:00 31,6 11,9 39,6 41,3 28,3 22,1 12 6 30 16 SE 1021,5 32 60 0,0
25.06.2019 13:00:00 31,0 14,3 38,2 40,3 27,4 22,0 14 8 27 15 ESE 1021,9 24 60 0,0
25.06.2019 12:00:00 29,8 14,0 35,7 38,1 26,7 22,0 12 6 29 15 ESE 1022,4 31 60 0,0
25.06.2019 11:00:00 28,7 14,0 34,1 35,4 26,0 22,0 17 9 29 16 SE 1022,6 32 60 0,0
25.06.2019 10:00:00 27,9 13,5 32,8 32,2 25,5 22,0 13 7 26 14 SE 1022,7 20 60 0,0
25.06.2019 09:00:00 26,7 13,3 30,1 29,0 25,3 22,0 13 7 28 15 SE 1023,0 22 60 0,0
25.06.2019 08:00:00 23,5 12,9 26,5 25,4 25,3 22,0 7 4 15 8 ESE 1023,4 27 60 0,0
25.06.2019 07:00:00 20,6 12,6 21,9 22,8 25,5 22,0 6 4 13 7 E 1023,3 16 60 0,0
25.06.2019 06:00:00 19,1 12,5 17,8 21,7 25,9 22,0 5 3 14 8 E 1023,0 31 14 0,0
25.06.2019 05:00:00 18,7 12,4 16,9 21,9 26,3 22,0 9 5 14 8 ENE 1022,7 36 0 0,0
25.06.2019 04:00:00 19,5 12,5 17,0 22,5 26,7 21,9 8 4 11 6 ENE 1022,8 42 0 0,0
25.06.2019 03:00:00 20,4 12,7 16,7 23,4 27,1 21,9 6 3 17 9 E 1023,1 31 0 0,0
25.06.2019 02:00:00 21,7 12,8 20,0 24,1 27,6 21,9 8 4 16 9 E 1023,1 36 0 0,0
25.06.2019 01:00:00 21,9 12,6 20,0 24,7 28,0 21,9 10 5 14 7 ENE 1022,9 50 0 0,0
25.06.2019 00:00:00 22,1 12,6 18,0 25,7 28,5 21,9 5 3 11 6 E 1022,9 53 0 0,0
24.06.2019 23:00:00 23,6 12,1 19,8 27,0 29,0 21,9 8 4 11 6 ESE 1022,8 60 0 0,0
24.06.2019 22:00:00 25,5 11,7 21,6 28,9 29,5 21,9 6 4 20 11 E 1022,4 42 0 0,0
24.06.2019 21:00:00 27,8 10,4 26,5 31,3 29,8 21,9 11 6 19 10 ENE 1022,0 70 51 0,0
24.06.2019 20:00:00 29,5 9,2 29,7 34,2 29,9 21,9 12 6 21 12 ENE 1021,7 70 60 0,0
24.06.2019 19:00:00 30,1 8,1 33,0 36,5 29,8 21,9 6 3 22 12 ENE 1021,7 70 60 0,0
24.06.2019 18:00:00 30,5 7,2 34,6 38,2 29,5 21,9 8 5 21 12 E 1021,9 47 60 0,0
24.06.2019 17:00:00 30,1 4,2 35,2 39,1 29,0 21,9 10 6 23 12 E 1022,1 51 60 0,0
24.06.2019 16:00:00 29,9 3,5 35,9 39,7 28,3 21,9 10 5 29 16 E 1022,4 49 60 0,0
24.06.2019 15:00:00 29,3 4,2 36,9 39,7 27,6 21,9 8 4 30 16 ENE 1022,8 44 60 0,0
24.06.2019 14:00:00 28,2 5,2 35,6 39,0 26,8 21,9 14 8 29 15 E 1023,1 46 60 0,0
24.06.2019 13:00:00 26,5 4,7 34,4 37,6 25,9 21,9 11 6 29 16 E 1023,6 48 60 0,0
24.06.2019 12:00:00 25,8 5,3 31,9 35,5 25,2 21,9 13 7 29 15 E 1024,1 44 60 0,0
24.06.2019 11:00:00 25,3 6,4 31,0 32,8 24,5 21,9 14 8 28 15 E 1024,3 47 60 0,0
24.06.2019 10:00:00 24,1 5,6 29,5 29,8 24,0 21,9 11 6 21 11 ENE 1024,5 55 60 0,0
24.06.2019 09:00:00 22,6 7,4 27,5 26,5 23,7 21,9 8 4 18 10 E 1024,9 41 60 0,0
24.06.2019 08:00:00 20,2 8,6 23,2 23,0 23,7 21,9 9 5 19 10 E 1024,7 35 60 0,0
24.06.2019 07:00:00 17,7 8,6 19,3 20,2 24,0 21,9 5 3 11 6 E 1024,7 30 60 0,0
24.06.2019 06:00:00 15,5 9,6 13,8 18,7 24,4 21,9 6 3 9 5 E 1024,4 40 14 0,0
24.06.2019 05:00:00 13,8 9,0 10,2 19,1 24,8 21,9 4 2 12 6 E 1024,1 42 0 0,0
24.06.2019 04:00:00 15,3 9,3 10,8 19,7 25,3 21,9 7 4 13 7 ENE 1023,8 49 0 0,0
24.06.2019 03:00:00 16,4 9,3 11,9 20,3 25,8 21,9 8 5 12 6 E 1023,4 49 0 0,0
24.06.2019 02:00:00 15,1 9,9 11,5 21,1 26,3 21,8 5 3 10 5 NE 1023,3 56 0 0,0
24.06.2019 01:00:00 15,6 9,6 11,9 22,0 26,9 21,8 6 4 10 5 NE 1023,1 53 0 0,0
24.06.2019 00:00:00 16,5 9,3 13,4 23,3 27,4 21,8 5 3 6 3 N 1022,6 64 0 0,0
23.06.2019 23:00:00 18,3 9,6 14,6 24,9 27,9 21,8 4 2 6 4 E 1022,0 70 0 0,0
23.06.2019 22:00:00 21,9 8,7 17,7 26,9 28,4 21,8 5 3 13 7 ESE 1021,3 42 0 0,0
23.06.2019 21:00:00 25,4 7,7 23,5 29,4 28,7 21,8 7 4 20 11 E 1020,5 70 53 0,0
23.06.2019 20:00:00 26,7 7,4 26,9 32,2 28,8 21,8 11 6 23 12 E 1020,3 70 57 0,0
23.06.2019 19:00:00 27,3 7,2 30,0 34,8 28,6 21,9 10 5 22 12 E 1020,2 56 60 0,0
23.06.2019 18:00:00 28,2 6,9 32,5 36,3 28,3 21,9 11 6 24 13 E 1020,3 59 55 0,0
23.06.2019 17:00:00 27,6 7,5 32,5 36,9 27,9 21,9 14 8 27 14 E 1020,4 70 50 0,0
23.06.2019 16:00:00 28,2 8,0 35,2 36,1 27,4 21,9 11 6 28 15 ESE 1020,8 36 42 0,0
23.06.2019 15:00:00 27,2 8,3 32,8 35,1 26,9 21,9 10 5 29 15 E 1021,1 63 27 0,0
23.06.2019 14:00:00 26,1 8,7 30,6 35,2 26,2 21,9 13 7 29 15 ENE 1021,3 66 26 0,0
23.06.2019 13:00:00 26,5 8,5 34,3 35,7 25,5 21,9 15 8 32 18 E 1021,4 63 52 0,0
23.06.2019 12:00:00 25,4 8,4 30,9 33,7 24,8 21,9 14 8 34 18 ENE 1021,6 70 54 0,0
23.06.2019 11:00:00 25,3 9,6 30,6 31,8 24,2 21,9 14 8 31 17 E 1021,7 54 60 0,0
23.06.2019 10:00:00 23,5 10,6 28,7 28,8 23,7 21,9 13 7 26 14 ENE 1021,7 48 60 0,0
23.06.2019 09:00:00 21,2 10,7 25,5 25,5 23,5 21,9 14 7 22 12 E 1021,9 34 60 0,0
23.06.2019 08:00:00 19,2 10,6 22,1 22,4 23,5 21,9 13 7 26 14 ENE 1021,8 46 60 0,0
23.06.2019 07:00:00 17,7 10,5 19,2 20,0 23,7 21,9 8 4 18 10 NE 1021,6 47 60 0,0
23.06.2019 06:00:00 15,6 10,5 14,1 18,8 24,1 21,9 6 3 10 6 NE 1021,4 37 14 0,0
23.06.2019 05:00:00 13,6 9,8 10,2 19,2 24,5 21,9 5 3 11 6 N 1021,1 40 0 0,0
23.06.2019 04:00:00 15,3 9,9 12,0 19,9 24,9 21,8 6 3 13 7 NE 1020,9 47 0 0,0
23.06.2019 03:00:00 16,9 9,6 14,9 20,6 25,4 21,8 9 5 16 8 NE 1021,0 50 0 0,0
23.06.2019 02:00:00 17,4 9,6 15,2 21,1 25,8 21,8 7 4 11 6 NE 1020,9 49 0 0,0
23.06.2019 01:00:00 17,5 9,1 13,5 22,0 26,3 21,8 5 3 12 6 NE 1020,7 50 0 0,0
23.06.2019 00:00:00 18,8 8,4 15,1 23,0 26,8 21,8 7 4 13 7 NNE 1020,4 52 0 0,0
22.06.2019 23:00:00 19,9 8,5 15,2 24,5 27,3 21,8 7 4 12 6 NE 1019,9 61 0 0,0
22.06.2019 22:00:00 22,6 8,1 19,9 26,3 27,7 21,8 9 5 19 10 ENE 1019,5 70 0 0,0
22.06.2019 21:00:00 24,4 7,5 23,4 28,2 28,0 21,8 10 5 25 13 E 1019,1 70 30 0,0
22.06.2019 20:00:00 25,8 7,4 26,0 30,4 28,1 21,8 12 6 31 17 E 1018,7 70 57 0,0
22.06.2019 19:00:00 26,1 7,1 27,4 32,2 28,1 21,9 16 9 31 17 ENE 1018,9 70 49 0,0
22.06.2019 18:00:00 27,6 7,9 32,6 32,7 28,0 21,9 16 8 30 16 ENE 1019,0 61 27 0,0
22.06.2019 17:00:00 26,4 7,5 29,0 34,5 27,7 21,9 14 8 30 16 ENE 1019,5 70 43 0,0
22.06.2019 16:00:00 26,6 8,3 30,4 33,9 27,4 21,9 12 7 35 19 ENE 1019,9 70 6 0,0
22.06.2019 15:00:00 26,6 8,1 34,9 35,4 26,9 21,9 14 8 30 16 ENE 1020,2 40 38 0,0
22.06.2019 14:00:00 25,5 8,6 28,9 35,7 26,3 21,9 13 7 27 14 ENE 1020,7 70 27 0,0
22.06.2019 13:00:00 26,5 11,0 34,8 35,1 25,6 21,9 15 8 26 14 NE 1021,4 48 35 0,0
22.06.2019 12:00:00 25,5 11,6 32,7 34,3 24,8 21,9 13 7 29 16 NE 1021,4 51 54 0,0
22.06.2019 11:00:00 24,3 11,9 30,0 31,7 24,2 21,9 12 6 26 14 E 1021,6 45 60 0,0
22.06.2019 10:00:00 22,5 13,1 27,8 28,7 23,7 21,9 11 6 22 12 ENE 1021,9 38 60 0,0
22.06.2019 09:00:00 21,5 13,3 25,8 25,6 23,4 21,9 11 6 21 11 ENE 1021,9 34 60 0,0
22.06.2019 08:00:00 19,7 13,0 23,0 22,7 23,4 21,9 7 4 13 7 NE 1021,9 31 60 0,0
22.06.2019 07:00:00 18,0 12,5 19,3 20,0 23,6 21,9 5 3 8 4 ENE 1021,4 34 60 0,0
22.06.2019 06:00:00 13,3 10,4 12,9 18,8 24,0 21,9 0 0 4 2 N 1021,4 26 13 0,0
22.06.2019 05:00:00 11,9 10,2 10,1 19,0 24,4 21,9 3 2 5 3 NW 1021,2 22 0 0,0
22.06.2019 04:00:00 12,3 10,5 10,2 19,6 24,8 21,9 2 1 5 3 NNE 1020,8 31 0 0,0
22.06.2019 03:00:00 13,1 10,1 10,8 20,2 25,3 21,9 4 2 6 3 N 1020,7 37 0 0,0
22.06.2019 02:00:00 14,6 10,5 11,7 21,0 25,8 21,9 4 2 9 5 N 1020,2 45 0 0,0
22.06.2019 01:00:00 15,6 10,2 12,3 21,9 26,3 21,9 5 3 9 5 N 1020,0 56 0 0,0
22.06.2019 00:00:00 17,5 9,9 13,8 23,1 26,8 21,9 4 2 10 5 N 1019,8 57 0 0,0
21.06.2019 23:00:00 19,5 9,7 15,9 24,5 27,2 21,9 6 3 10 5 NNW 1019,2 70 0 0,0
21.06.2019 22:00:00 20,2 11,2 17,2 26,1 27,6 21,9 4 2 14 7 NW 1018,6 19 0 0,0
21.06.2019 21:00:00 23,7 9,9 22,0 28,1 27,9 21,9 5 3 12 6 NNW 1017,5 70 30 0,0
21.06.2019 20:00:00 23,8 10,3 24,0 29,4 28,1 21,9 6 4 17 9 NNW 1017,0 70 0 0,0
21.06.2019 19:00:00 24,2 10,2 25,2 31,9 28,0 21,9 9 5 21 12 WNW 1016,6 67 13 0,0
21.06.2019 18:00:00 25,2 10,9 28,1 34,3 27,8 21,9 8 5 27 15 WNW 1016,3 70 51 0,0
21.06.2019 17:00:00 25,8 11,2 32,1 34,0 27,4 21,9 13 7 28 15 WNW 1016,1 68 44 0,0
21.06.2019 16:00:00 25,8 11,9 32,5 34,0 26,9 21,9 9 5 29 16 WNW 1016,3 70 47 0,0
21.06.2019 15:00:00 24,0 13,4 29,2 33,5 26,4 21,9 13 7 25 13 W 1016,8 51 30 0,0
21.06.2019 14:00:00 23,7 14,5 31,1 31,2 26,0 21,9 14 7 28 15 W 1016,8 46 10 0,0
21.06.2019 13:00:00 24,2 13,6 32,7 31,1 25,5 21,9 12 6 24 13 W 1016,6 47 15 0,0
21.06.2019 12:00:00 24,0 14,3 30,5 31,1 24,9 21,9 12 6 26 14 W 1016,5 47 38 0,0

tt = Température de l'air
td = dewpoint
tt 5cm = Température de l'air 5cm
tt -5cm = Température de l'air -5cm
tt -20cm = Température de l'air -20cm
tt -100cm = Température de l'air -100cm
ff = Vitesse du vent
fx = gusts
dd = Direction du vent
ppp = reduced air pressure
vv = visibility
sd = Ensoleillement
rr = Quantités de précipitations

stations d'obs. à proximité